Weather History for Woodward, OK

Change the Weather History Date:

Monday, May 27, 2013

  Actual Average (KGAG) Record (KGAG)
Temperature  
Mean Temperature 84 °F -  
Max Temperature 96 °F 80 °F 98 °F (2013)
Min Temperature 71 °F 56 °F 37 °F (1950)
Cooling Degree Days 18    
Growing Degree Days 34 (Base 50)    
Moisture  
Dew Point 61 °F    
Average Humidity 49    
Maximum Humidity 73    
Minimum Humidity 25    
Precipitation  
Precipitation 0.00 in - - ()
Sea Level Pressure  
Sea Level Pressure 29.73 in    
Wind  
Wind Speed 24 mph (South)    
Max Wind Speed 33 mph    
Max Gust Speed 44 mph    
Visibility 10 miles    
Events      
Averages and records for this station are not official NWS values.
T = Trace of Precipitation, MM = Missing Value Source: NWS Daily Summary

Daily Weather History Graph

Daily Weather History Graph

Search for Another Location

Airport:

Trip Planner

Search our weather history database for the weather conditions in past years. The results will help you decide how hot, cold, wet, or windy it might be!

Date:

Astronomy

May. 27, 2013 Rise Set
Actual Time 6:23 AM CDT 8:47 PM CDT
Civil Twilight 5:53 AM CDT 9:17 PM CDT
Nautical Twilight 5:17 AM CDT 9:53 PM CDT
Astronomical Twilight 4:37 AM CDT 10:34 PM CDT
Moon 11:30 PM CDT (5/27) 9:01 AM CDT (5/27)
Length of Visible Light 15h 23m
Length of Day
14h 24m
Waning Gibbous, 91% of the Moon is Illuminated
May 27
Waning Gibbous
May 31
Last Quarter
Jun 8
New
Jun 16
First Quarter
Jun 23
Full

Hourly Weather History & Observations

Time (CDT) Temp. Heat Index Dew Point Humidity Pressure Visibility Wind Dir Wind Speed Gust Speed Precip Events Conditions
12:15 AM 77.0 °F - 64.4 °F 65% 29.84 in 10.0 mi SSE 25.3 mph 35.7 mph N/A   Clear
12:35 AM 75.2 °F - 64.4 °F 69% 29.83 in 10.0 mi South 25.3 mph 34.5 mph N/A   Clear
12:55 AM 75.2 °F - 64.4 °F 69% 29.84 in 10.0 mi SSE 24.2 mph 34.5 mph N/A   Clear
1:15 AM 75.2 °F - 64.4 °F 69% 29.84 in 10.0 mi South 24.2 mph 33.4 mph N/A   Clear
1:35 AM 75.2 °F - 62.6 °F 65% 29.83 in 10.0 mi South 23.0 mph 32.2 mph N/A   Clear
1:55 AM 75.2 °F - 62.6 °F 65% 29.82 in 10.0 mi South 23.0 mph 29.9 mph N/A   Clear
2:15 AM 77.0 °F - 62.6 °F 61% 29.82 in 10.0 mi South 23.0 mph 31.1 mph N/A   Clear
2:35 AM 77.0 °F - 60.8 °F 57% 29.81 in 10.0 mi South 25.3 mph 35.7 mph N/A   Clear
2:55 AM 77.0 °F - 60.8 °F 57% 29.81 in 10.0 mi South 26.5 mph 33.4 mph N/A   Clear
3:15 AM 77.0 °F - 60.8 °F 57% 29.82 in 10.0 mi South 20.7 mph 28.8 mph N/A   Clear
3:35 AM 75.2 °F - 60.8 °F 61% 29.81 in 10.0 mi South 20.7 mph 28.8 mph N/A   Clear
3:55 AM 75.2 °F - 60.8 °F 61% 29.80 in 10.0 mi South 18.4 mph 28.8 mph N/A   Clear
4:15 AM 75.2 °F - 60.8 °F 61% 29.79 in 10.0 mi South 18.4 mph 27.6 mph N/A   Clear
4:35 AM 73.4 °F - 60.8 °F 65% 29.79 in 10.0 mi South 21.9 mph 27.6 mph N/A   Clear
4:55 AM 73.4 °F - 60.8 °F 65% 29.79 in 10.0 mi South 21.9 mph 27.6 mph N/A   Clear
5:15 AM 73.4 °F - 60.8 °F 65% 29.78 in 10.0 mi South 21.9 mph 32.2 mph N/A   Clear
5:35 AM 73.4 °F - 60.8 °F 65% 29.77 in 10.0 mi South 24.2 mph 35.7 mph N/A   Clear
5:55 AM 73.4 °F - 60.8 °F 65% 29.77 in 10.0 mi South 24.2 mph 31.1 mph N/A   Clear
6:15 AM 73.4 °F - 60.8 °F 65% 29.77 in 10.0 mi South 21.9 mph 29.9 mph N/A   Clear
6:35 AM 71.6 °F - 62.6 °F 73% 29.78 in 10.0 mi SSW 19.6 mph 25.3 mph N/A   Clear
6:55 AM 71.6 °F - 62.6 °F 73% 29.79 in 10.0 mi South 20.7 mph 27.6 mph N/A   Clear
7:15 AM 71.6 °F - 62.6 °F 73% 29.78 in 10.0 mi South 20.7 mph 28.8 mph N/A   Clear
7:35 AM 73.4 °F - 62.6 °F 69% 29.78 in 10.0 mi South 23.0 mph 29.9 mph N/A   Clear
7:55 AM 73.4 °F - 62.6 °F 69% 29.78 in 10.0 mi South 23.0 mph 27.6 mph N/A   Clear
8:15 AM 75.2 °F - 64.4 °F 69% 29.78 in 10.0 mi South 21.9 mph 28.8 mph N/A   Clear
8:35 AM 77.0 °F - 64.4 °F 65% 29.78 in 10.0 mi SSW 19.6 mph 28.8 mph N/A   Clear
9:15 AM 78.8 °F - 64.4 °F 61% 29.79 in 10.0 mi SSW 25.3 mph 34.5 mph N/A   Clear
9:35 AM 80.6 °F 82.3 °F 64.4 °F 58% 29.78 in 10.0 mi South 25.3 mph 32.2 mph N/A   Clear
9:55 AM 80.6 °F 82.3 °F 64.4 °F 58% 29.77 in 10.0 mi SSW 24.2 mph 34.5 mph N/A   Clear
10:15 AM 82.4 °F 83.9 °F 64.4 °F 54% 29.76 in 10.0 mi SSW 23.0 mph 31.1 mph N/A   Clear
10:35 AM 84.2 °F 85.6 °F 64.4 °F 51% 29.76 in 10.0 mi SSW 25.3 mph 33.4 mph N/A   Clear
10:55 AM 86.0 °F 86.6 °F 62.6 °F 45% 29.76 in 10.0 mi SSW 25.3 mph 29.9 mph N/A   Clear
11:15 AM 87.8 °F 88.5 °F 62.6 °F 43% 29.75 in 10.0 mi South 24.2 mph 32.2 mph N/A   Clear
11:35 AM 87.8 °F 87.6 °F 60.8 °F 40% 29.74 in 10.0 mi South 23.0 mph 32.2 mph N/A   Clear
11:55 AM 89.6 °F 89.5 °F 60.8 °F 38% 29.74 in 10.0 mi South 26.5 mph 34.5 mph N/A   Clear
12:15 PM 89.6 °F 89.5 °F 60.8 °F 38% 29.74 in 10.0 mi SSW 20.7 mph 32.2 mph N/A   Clear
12:35 PM 91.4 °F 91.4 °F 60.8 °F 36% 29.74 in 10.0 mi South 25.3 mph 35.7 mph N/A   Clear
12:55 PM 91.4 °F 90.7 °F 59.0 °F 34% 29.73 in 10.0 mi South 26.5 mph 35.7 mph N/A   Clear
1:15 PM 93.2 °F 92.6 °F 59.0 °F 32% 29.73 in 10.0 mi South 25.3 mph 32.2 mph N/A   Clear
1:35 PM 95.0 °F 94.4 °F 59.0 °F 30% 29.72 in 10.0 mi South 25.3 mph 32.2 mph N/A   Clear
1:55 PM 95.0 °F 94.4 °F 59.0 °F 30% 29.71 in 10.0 mi South 25.3 mph 33.4 mph N/A   Clear
2:15 PM 96.8 °F 96.2 °F 59.0 °F 28% 29.70 in 10.0 mi South 24.2 mph 33.4 mph N/A   Clear
2:35 PM 95.0 °F 94.4 °F 59.0 °F 30% 29.69 in 10.0 mi South 23.0 mph 33.4 mph N/A   Clear
2:55 PM 96.8 °F 95.1 °F 55.4 °F 25% 29.69 in 10.0 mi South 27.6 mph 34.5 mph N/A   Clear
3:15 PM 95.0 °F 93.7 °F 57.2 °F 28% 29.68 in 10.0 mi South 28.8 mph 38.0 mph N/A   Clear
3:55 PM 95.0 °F 94.4 °F 59.0 °F 30% 29.67 in 10.0 mi South 28.8 mph 34.5 mph N/A   Clear
4:15 PM 95.0 °F 94.4 °F 59.0 °F 30% 29.67 in 10.0 mi South 27.6 mph 33.4 mph N/A   Clear
4:35 PM 96.8 °F 96.2 °F 59.0 °F 28% 29.65 in 10.0 mi South 28.8 mph 36.8 mph N/A   Clear
4:55 PM 96.8 °F 96.2 °F 59.0 °F 28% 29.64 in 10.0 mi SSE 29.9 mph 40.3 mph N/A   Clear
5:15 PM 96.8 °F 96.2 °F 59.0 °F 28% 29.63 in 10.0 mi South 33.4 mph 39.1 mph N/A   Clear
5:35 PM 96.8 °F 96.2 °F 59.0 °F 28% 29.62 in 10.0 mi South 28.8 mph 36.8 mph N/A   Clear
5:55 PM 95.0 °F 94.4 °F 59.0 °F 30% 29.62 in 10.0 mi South 32.2 mph 38.0 mph N/A   Clear
6:15 PM 95.0 °F 94.4 °F 59.0 °F 30% 29.61 in 10.0 mi South 28.8 mph 35.7 mph N/A   Clear
6:35 PM 93.2 °F 92.6 °F 59.0 °F 32% 29.60 in 10.0 mi South 27.6 mph 36.8 mph N/A   Clear
6:55 PM 93.2 °F 92.6 °F 59.0 °F 32% 29.60 in 10.0 mi South 25.3 mph 29.9 mph N/A   Clear
7:15 PM 91.4 °F 90.7 °F 59.0 °F 34% 29.61 in 10.0 mi South 25.3 mph 34.5 mph N/A   Clear
7:35 PM 89.6 °F 88.9 °F 59.0 °F 36% 29.62 in 10.0 mi South 27.6 mph 38.0 mph N/A   Clear
7:55 PM 87.8 °F 88.5 °F 62.6 °F 43% 29.63 in 10.0 mi SSE 28.8 mph 33.4 mph N/A   Clear
8:15 PM 87.8 °F 87.6 °F 60.8 °F 40% 29.63 in 10.0 mi South 33.4 mph 43.7 mph N/A   Clear
8:35 PM 84.2 °F 83.5 °F 57.2 °F 40% 29.64 in 10.0 mi South 25.3 mph 29.9 mph N/A   Clear
8:55 PM 80.6 °F 80.5 °F 55.4 °F 42% 29.65 in 10.0 mi South 25.3 mph 34.5 mph N/A   Clear
9:15 PM 80.6 °F 80.5 °F 55.4 °F 42% 29.66 in 10.0 mi South 20.7 mph 29.9 mph N/A   Clear
9:35 PM 80.6 °F 80.5 °F 55.4 °F 42% 29.67 in 10.0 mi South 21.9 mph 28.8 mph N/A   Clear
9:55 PM 78.8 °F - 59.0 °F 51% 29.68 in 10.0 mi SSE 21.9 mph 28.8 mph N/A   Clear
10:15 PM 80.6 °F 81.5 °F 60.8 °F 51% 29.69 in 10.0 mi South 25.3 mph 29.9 mph N/A   Clear
10:35 PM 80.6 °F 81.8 °F 62.6 °F 54% 29.69 in 10.0 mi South 28.8 mph 34.5 mph N/A   Clear
10:55 PM 80.6 °F 81.8 °F 62.6 °F 54% 29.68 in 10.0 mi South 25.3 mph 33.4 mph N/A   Clear
11:15 PM 80.6 °F 81.8 °F 62.6 °F 54% 29.67 in 10.0 mi South 27.6 mph 35.7 mph N/A   Clear
11:35 PM 78.8 °F - 62.6 °F 57% 29.67 in 10.0 mi South 27.6 mph 34.5 mph N/A   Clear
11:55 PM 78.8 °F - 62.6 °F 57% 29.67 in 10.0 mi South 26.5 mph 33.4 mph N/A   Clear